Wind_Speed
34 34 33 33 33 33 33 33 34 36 36 36 36 35 34 34 35 34 34 34 34 34 34 35 35 35 35 34 33 34 34 34 34 35 35 35 35 36 36 35 34 33 32 33 34 32 33
35 35 35 34 33 32 32 33 33 34 35 36 36 35 35 35 35 35 35 35 36 37 37 37 37 37 36 35 36 36 35 36 36 38 38 38 38 39 38 37 38 39 38 37 38 37 38
37 36 36 35 35 34 34 34 34 33 33 34 35 35 36 37 38 37 37 37 36 36 37 38 39 40 39 37 37 39 38 38 39 40 40 40 40 41 40 40 42 42 42 42 39 40 40
42 41 40 39 38 38 37 37 37 37 37 38 39 39 40 40 41 40 39 39 37 37 39 40 41 42 40 38 38 38 39 38 39 40 40 40 42 42 40 42 43 42 45 46 43 44 45
45 44 45 44 44 43 42 43 42 41 41 40 41 41 42 42 43 41 42 44 41 40 41 42 43 45 43 39 40 41 41 40 40 40 41 41 44 41 40 43 40 39 45 45 41 40 44
48 48 47 47 47 47 46 46 46 45 45 44 44 44 44 43 44 44 44 47 45 45 45 45 46 47 46 42 41 41 41 42 42 42 43 42 45 41 36 40 41 40 44 42 39 40 49
50 50 50 50 49 49 50 49 48 46 45 46 46 45 45 45 45 46 46 48 49 50 48 47 49 48 49 47 44 43 42 43 43 45 44 47 49 40 37 42 46 44 44 45 34 35 53
51 50 50 49 49 49 50 50 49 47 47 46 47 47 47 46 46 46 45 45 47 51 54 48 49 52 49 48 50 44 45 45 46 46 47 52 55 41 45 46 50 48 50 49 47 42 52
55 55 53 53 54 49 51 48 47 47 48 48 50 49 47 46 46 47 47 46 48 50 58 56 50 54 51 49 49 47 47 48 50 52 50 54 55 50 50 51 51 52 53 53 54 48 55
61 63 60 55 54 53 52 56 53 51 49 47 48 50 49 49 46 46 48 50 51 52 60 63 59 57 54 53 54 48 46 44 46 49 52 57 54 53 55 55 49 56 52 53 52 54 59
49 51 53 54 58 54 51 50 47 46 53 48 47 50 51 49 50 50 50 51 52 51 63 62 65 61 54 48 47 48 47 47 47 47 48 50 49 51 51 48 47 53 51 51 55 59 63
53 50 49 46 55 48 51 49 47 42 47 58 56 53 50 52 52 50 51 52 52 52 67 64 64 62 58 58 53 49 49 48 46 48 49 49 50 54 55 53 53 56 57 58 59 61 70
52 60 56 50 46 51 57 57 56 58 53 54 60 57 58 55 54 55 57 55 56 58 62 59 60 58 61 62 61 60 57 51 50 51 51 49 51 52 54 54 52 52 57 59 64 67 68
62 56 60 60 63 61 65 64 66 63 64 61 60 59 61 64 59 59 57 59 59 60 59 60 62 62 64 63 63 62 62 60 59 52 51 55 56 50 48 48 49 52 53 57 61 64 66
71 70 67 71 70 68 69 71 70 69 69 71 72 68 67 67 67 61 54 58 61 59 60 62 65 69 65 65 66 65 65 63 60 58 60 56 58 57 55 52 51 56 59 53 59 61 65
69 67 69 71 71 73 71 74 75 76 75 77 77 75 73 71 69 68 69 64 58 63 68 65 66 65 68 69 73 70 66 67 66 61 59 64 61 56 58 59 63 62 58 60 64 67 70
71 73 73 74 75 76 75 76 76 79 79 84 81 82 80 79 76 75 76 72 70 58 59 60 65 64 67 69 71 72 70 69 69 64 62 62 64 64 64 63 60 62 64 66 67 71 74
73 74 75 77 76 75 79 80 82 82 81 82 84 86 84 84 85 84 86 81 80 74 71 68 69 59 63 67 68 62 72 73 66 67 70 66 71 77 73 68 65 70 71 70 72 73 76
79 77 78 77 78 79 79 79 83 84 87 86 87 87 87 86 90 94 94 90 88 82 80 83 85 79 70 67 71 60 60 63 61 65 78 77 80 82 80 71 70 70 68 68 70 69 75
78 80 82 82 81 82 81 83 81 81 82 83 87 87 89 89 91 90 91 93 95 94 90 87 89 86 82 79 81 79 71 63 52 52 59 67 68 55 55 54 54 67 68 73 67 60 71
78 78 79 79 83 83 84 82 81 79 83 85 85 86 86 87 88 89 84 86 89 94 96 90 94 91 86 90 93 94 95 82 77 78 91 87 74 71 66 70 60 53 57 53 51 61 68
73 73 74 75 75 75 76 76 77 74 77 79 81 81 83 84 84 86 85 88 88 84 86 90 93 88 88 91 90 93 91 96 103 104 100 99 106 98 97 86 87 88 82 81 66 65 66
72 73 74 73 73 73 73 74 75 76 75 77 79 83 81 80 79 81 83 82 83 81 84 82 79 85 86 89 87 89 89 91 90 93 98 98 94 100 97 97 97 87 92 83 74 68 63
72 71 71 71 72 72 73 73 73 74 75 71 72 73 75 80 83 84 82 81 80 78 82 83 82 87 86 76 70 79 84 87 91 89 85 83 83 87 91 89 97 100 95 88 89 84 86
76 75 74 74 73 73 73 74 74 73 72 73 74 75 76 81 79 79 78 81 83 85 86 82 79 81 86 81 75 75 73 78 81 84 85 82 80 80 86 93 95 91 90 88 90 98 92
80 79 78 78 78 77 76 76 76 75 76 77 78 80 81 81 80 78 78 77 79 80 81 82 83 84 85 86 90 98 102 98 92 88 91 80 76 83 84 82 88 80 65 60 63 82 75
76 77 76 77 76 76 76 75 75 76 76 76 76 76 79 81 78 77 78 79 78 79 82 82 82 80 84 88 91 92 91 88 91 92 77 71 72 77 67 66 66 51 42 49 83 85 81
66 66 67 67 68 68 69 69 69 69 70 72 70 72 77 81 77 80 79 79 79 79 80 80 81 81 82 84 88 90 92 89 82 80 83 93 92 88 78 77 98 96 88 90 87 86 78
62 62 62 63 63 63 64 64 64 64 65 68 69 70 73 77 77 76 74 72 72 75 77 76 77 77 80 81 83 88 90 91 84 74 63 63 68 75 85 90 78 73 72 65 66 65 69
Wind_Direction
245 246 247 248 250 253 254 254 255 258 259 260 261 262 263 265 267 269 271 273 274 273 273 275 277 277 277 278 278 277 276 275 277 278 280 282 285 285 289 293 294 296 296 299 299 302 300
245 246 248 249 250 252 254 257 258 259 261 262 263 264 265 266 267 268 268 270 271 273 274 275 275 276 275 278 279 279 279 279 279 279 280 282 284 287 288 293 294 294 293 294 295 296 295
245 246 247 248 250 251 254 255 257 259 261 264 264 265 266 267 268 268 268 267 267 270 272 274 276 274 276 278 278 279 280 280 280 281 282 284 285 286 288 289 290 291 291 291 292 291 293
246 247 249 251 253 255 255 256 258 260 261 262 264 266 267 267 267 267 268 267 268 270 272 273 274 275 276 277 280 281 279 280 282 282 282 281 281 283 288 289 289 294 293 291 290 290 288
248 249 250 251 252 254 256 259 260 260 260 261 263 265 266 266 266 267 268 268 269 269 271 273 275 277 276 276 278 279 281 282 282 284 283 283 283 286 289 290 293 294 292 294 293 293 290
252 252 252 254 254 255 255 255 256 258 260 261 262 263 264 266 267 268 268 270 271 271 271 273 274 275 276 276 273 274 276 279 282 283 284 286 286 286 292 294 293 291 296 298 301 303 295
251 253 253 255 256 258 259 258 258 258 260 262 262 262 262 263 264 266 268 269 272 272 270 270 273 272 276 275 273 274 275 277 280 282 286 282 280 288 292 287 287 289 288 292 297 292 291
251 252 254 254 255 258 259 259 260 261 262 263 264 264 263 264 266 268 268 270 271 274 273 271 270 274 274 275 275 276 275 278 279 281 279 280 279 289 281 281 283 286 290 292 294 293 287
248 250 252 256 255 257 260 256 258 263 264 263 264 264 264 265 265 267 269 270 270 271 273 271 272 274 275 274 276 279 279 277 279 277 279 279 282 282 278 278 280 282 282 288 289 289 285
252 249 250 253 253 260 261 256 261 263 261 260 260 262 264 264 264 266 266 267 267 269 274 275 273 269 274 276 280 285 281 280 277 279 276 273 278 279 278 279 282 278 280 282 283 284 286
259 255 253 256 255 256 257 256 262 271 258 258 261 261 258 258 260 263 264 264 265 266 272 275 276 278 280 278 282 280 279 278 279 279 276 280 278 277 275 276 274 278 280 279 279 280 282
257 251 251 250 253 260 259 258 261 270 278 258 264 266 262 262 263 266 267 266 265 267 268 272 276 282 286 286 284 282 280 279 277 275 275 275 272 272 275 275 275 276 276 278 278 278 277
253 250 253 250 260 265 270 281 270 271 268 265 259 266 269 263 263 268 269 271 270 269 274 275 276 279 281 286 287 288 286 278 274 277 274 274 272 271 272 275 274 274 275 274 273 274 282
257 254 252 251 270 269 268 271 274 266 260 260 258 259 266 265 265 269 269 273 273 272 275 273 271 276 276 279 284 282 282 282 283 277 275 275 274 275 271 270 271 270 270 269 273 278 280
270 270 267 270 267 265 259 260 262 263 258 260 263 261 258 261 262 263 261 252 265 274 269 271 271 269 271 271 275 279 277 278 276 276 276 274 270 272 272 272 270 267 267 273 273 272 274
264 264 263 261 262 262 261 260 261 261 258 256 259 259 258 263 265 261 258 254 260 260 267 270 273 268 267 271 273 271 273 273 275 278 276 273 272 269 269 270 270 272 274 272 272 274 276
265 264 264 263 261 260 262 264 263 262 262 264 262 261 257 258 266 266 267 254 256 258 263 265 266 270 268 269 270 274 276 274 278 280 278 276 273 269 271 267 272 273 272 273 272 272 275
266 265 264 264 265 265 263 263 265 264 264 265 271 271 265 266 268 269 266 266 259 254 262 270 262 261 270 267 265 265 268 272 270 277 278 273 274 274 273 271 265 265 267 269 272 277 275
267 266 266 266 266 265 263 263 262 264 266 267 267 269 269 269 268 269 269 270 269 264 263 264 267 268 269 266 266 266 266 268 267 272 269 273 283 282 274 271 272 271 272 270 272 269 264
267 267 268 267 267 267 267 265 264 265 266 267 268 269 268 268 268 269 271 270 270 269 268 265 268 270 268 269 262 265 262 266 264 267 272 283 283 281 277 271 271 271 270 266 261 260 265
269 270 269 268 266 266 267 269 269 269 268 267 268 268 270 270 270 270 268 268 268 267 268 267 267 267 267 268 268 272 273 265 262 263 276 280 280 271 273 277 276 282 276 260 263 271 270
265 266 266 267 267 268 268 269 271 269 266 266 269 268 266 266 269 269 269 270 272 270 268 269 270 270 268 269 270 272 273 273 274 272 277 276 277 279 275 277 281 281 280 278 280 277 278
267 267 268 269 270 270 271 271 270 270 272 273 270 268 267 267 268 267 267 268 268 267 266 267 267 268 268 270 273 272 269 268 271 274 276 279 281 281 277 275 275 273 277 282 279 273 278
265 266 267 268 269 270 270 270 271 271 271 272 272 272 271 270 268 267 268 267 267 265 265 264 262 262 268 267 265 271 273 271 272 274 276 275 274 275 276 276 271 275 273 277 276 276 276
266 266 266 267 268 268 269 269 269 270 271 271 272 272 273 272 271 271 270 269 267 266 267 265 264 262 261 259 259 261 262 265 266 268 271 277 276 270 272 274 276 275 276 278 278 276 277
266 266 266 267 267 266 267 268 269 270 270 271 271 273 273 273 271 273 273 272 271 269 266 265 264 261 260 260 260 263 264 265 267 273 273 273 271 275 268 269 271 277 278 281 279 272 275
267 267 267 268 268 268 268 268 268 268 269 269 269 270 272 273 273 274 274 275 274 272 269 268 265 262 263 262 262 262 264 266 266 267 262 267 264 270 281 275 271 274 269 273 277 281 288
267 267 267 267 267 267 267 267 267 267 268 268 269 271 273 274 273 274 275 274 273 273 273 271 268 266 263 260 262 262 262 263 264 263 261 261 262 264 263 264 276 278 278 278 279 277 272
267 266 266 266 266 266 267 267 268 269 269 271 272 273 275 275 276 276 275 277 277 275 275 272 271 270 268 264 262 261 260 259 257 256 256 256 258 258 259 265 267 265 273 271 269 257 260
Height
5843 5844 5846 5847 5848 5850 5851 5853 5854 5856 5856 5857 5858 5858 5859 5859 5859 5859 5859 5860 5860 5860 5860 5860 5860 5860 5860 5861 5862 5860 5860 5859 5859 5857 5856 5855 5853 5851 5850 5848 5848 5848 5847 5846 5844 5843 5841
5836 5838 5840 5841 5843 5844 5846 5847 5848 5849 5850 5851 5852 5852 5852 5852 5852 5853 5853 5852 5852 5852 5852 5852 5852 5853 5854 5856 5855 5854 5854 5853 5853 5851 5850 5849 5847 5844 5844 5843 5842 5841 5840 5840 5839 5836 5835
5830 5831 5833 5835 5836 5837 5839 5841 5842 5843 5844 5845 5846 5846 5846 5846 5846 5846 5846 5846 5846 5845 5845 5845 5845 5844 5846 5848 5847 5847 5846 5846 5846 5845 5844 5842 5840 5837 5837 5836 5835 5832 5832 5832 5832 5829 5826
5822 5824 5826 5828 5829 5831 5832 5833 5835 5836 5837 5838 5839 5839 5839 5839 5838 5838 5838 5837 5839 5838 5838 5837 5837 5835 5837 5840 5839 5839 5837 5838 5838 5837 5837 5835 5832 5830 5830 5829 5826 5825 5821 5820 5823 5819 5816
5813 5815 5817 5819 5821 5822 5823 5825 5826 5827 5828 5828 5829 5830 5830 5830 5829 5830 5830 5828 5830 5830 5830 5829 5829 5827 5829 5833 5832 5830 5830 5830 5829 5829 5827 5827 5824 5824 5825 5819 5818 5817 5810 5811 5812 5810 5802
5804 5805 5807 5809 5811 5812 5814 5814 5816 5817 5818 5819 5819 5820 5820 5820 5821 5821 5821 5819 5820 5820 5821 5820 5818 5820 5819 5823 5823 5822 5821 5821 5821 5820 5820 5819 5814 5815 5818 5812 5809 5808 5801 5801 5802 5801 5789
5794 5796 5798 5799 5800 5802 5803 5804 5805 5806 5808 5808 5809 5809 5810 5810 5810 5810 5811 5810 5811 5809 5809 5810 5808 5808 5808 5810 5812 5814 5813 5812 5812 5812 5813 5808 5804 5810 5813 5804 5801 5800 5798 5794 5800 5798 5779
5784 5785 5788 5789 5791 5792 5792 5794 5795 5796 5797 5798 5797 5798 5800 5800 5800 5801 5801 5800 5799 5797 5793 5801 5798 5795 5798 5801 5800 5805 5806 5805 5803 5803 5800 5797 5792 5807 5799 5798 5793 5791 5786 5786 5785 5787 5775
5772 5775 5776 5778 5780 5781 5783 5784 5785 5785 5786 5786 5787 5787 5789 5788 5789 5790 5789 5790 5788 5785 5779 5782 5790 5786 5788 5790 5791 5795 5797 5795 5794 5791 5791 5786 5785 5789 5789 5787 5785 5783 5779 5778 5775 5776 5764
5761 5762 5765 5766 5769 5771 5772 5773 5774 5775 5776 5775 5776 5776 5778 5778 5780 5778 5778 5777 5776 5777 5769 5765 5770 5774 5780 5781 5779 5784 5784 5784 5782 5780 5780 5773 5776 5777 5775 5772 5776 5768 5773 5768 5765 5761 5753
5748 5749 5751 5754 5757 5759 5761 5762 5763 5764 5764 5764 5765 5765 5765 5766 5767 5767 5767 5765 5764 5766 5753 5756 5751 5756 5764 5771 5773 5771 5771 5770 5770 5768 5767 5766 5765 5761 5761 5765 5763 5758 5759 5759 5756 5750 5741
5738 5739 5740 5743 5746 5747 5749 5751 5753 5752 5752 5751 5752 5754 5755 5755 5756 5755 5753 5753 5754 5755 5733 5743 5744 5747 5749 5749 5753 5758 5757 5756 5757 5755 5752 5754 5753 5750 5749 5750 5751 5750 5747 5746 5743 5739 5724
5723 5725 5727 5730 5732 5735 5736 5738 5741 5740 5740 5740 5739 5740 5744 5744 5743 5741 5740 5740 5743 5736 5735 5738 5736 5737 5735 5735 5735 5737 5740 5743 5741 5739 5740 5741 5739 5739 5739 5739 5737 5738 5734 5732 5727 5724 5716
5708 5709 5710 5713 5716 5719 5721 5721 5724 5726 5727 5725 5724 5724 5727 5730 5729 5728 5728 5726 5726 5730 5728 5730 5726 5725 5721 5722 5722 5722 5723 5724 5725 5727 5725 5723 5722 5726 5728 5727 5725 5722 5721 5718 5712 5714 5708
5690 5694 5697 5698 5700 5702 5705 5707 5707 5710 5710 5710 5707 5708 5712 5713 5712 5711 5710 5705 5717 5715 5714 5711 5711 5709 5711 5713 5706 5705 5707 5710 5711 5714 5711 5708 5707 5710 5709 5711 5711 5708 5703 5709 5700 5702 5695
5676 5677 5679 5682 5683 5684 5686 5690 5690 5691 5692 5688 5688 5688 5696 5697 5693 5689 5684 5690 5702 5698 5699 5696 5693 5697 5698 5695 5691 5689 5690 5695 5692 5695 5696 5690 5688 5697 5695 5696 5692 5689 5696 5690 5686 5682 5679
5657 5660 5661 5663 5664 5666 5667 5669 5671 5673 5673 5670 5667 5663 5677 5676 5672 5668 5666 5678 5681 5686 5685 5680 5677 5677 5681 5680 5677 5673 5674 5679 5673 5672 5674 5675 5670 5677 5676 5680 5685 5680 5676 5673 5670 5667 5661
5638 5640 5644 5645 5645 5645 5649 5650 5652 5653 5655 5650 5648 5641 5655 5652 5648 5646 5650 5662 5668 5676 5670 5660 5660 5660 5664 5666 5660 5658 5659 5659 5665 5655 5650 5652 5645 5646 5653 5663 5664 5659 5658 5657 5653 5657 5648
5619 5621 5622 5623 5625 5628 5629 5630 5632 5632 5633 5629 5625 5624 5627 5629 5621 5626 5631 5636 5637 5651 5655 5646 5641 5641 5649 5646 5637 5640 5642 5653 5652 5645 5635 5631 5625 5620 5627 5640 5646 5641 5644 5641 5635 5633 5625
5601 5602 5602 5603 5605 5607 5607 5608 5609 5611 5610 5609 5602 5600 5602 5603 5608 5609 5609 5610 5616 5628 5627 5629 5622 5620 5622 5624 5627 5616 5622 5633 5640 5630 5622 5616 5609 5606 5608 5617 5624 5617 5621 5620 5614 5604 5606
5580 5580 5580 5582 5584 5585 5586 5586 5587 5588 5588 5588 5581 5581 5579 5578 5584 5588 5590 5585 5592 5601 5608 5614 5595 5601 5606 5599 5604 5596 5598 5611 5613 5614 5601 5596 5592 5595 5595 5598 5605 5601 5600 5601 5595 5593 5584
5561 5561 5561 5562 5563 5563 5564 5564 5563 5566 5566 5563 5563 5559 5558 5561 5564 5566 5566 5564 5568 5579 5583 5581 5574 5581 5580 5571 5579 5581 5584 5580 5581 5584 5575 5574 5568 5574 5572 5579 5579 5577 5585 5587 5589 5585 5576
5541 5541 5542 5542 5543 5543 5544 5545 5545 5545 5545 5541 5541 5537 5536 5542 5544 5543 5548 5546 5543 5550 5556 5556 5557 5552 5553 5557 5558 5555 5557 5557 5558 5555 5556 5551 5549 5550 5543 5559 5556 5542 5565 5573 5572 5573 5568
5524 5524 5524 5524 5524 5525 5526 5525 5525 5525 5524 5524 5520 5516 5512 5515 5517 5528 5526 5520 5521 5525 5522 5535 5538 5533 5535 5536 5537 5535 5531 5532 5534 5535 5538 5535 5535 5532 5522 5530 5505 5521 5548 5548 5547 5548 5556
5503 5503 5504 5504 5505 5506 5505 5505 5506 5505 5504 5503 5499 5496 5490 5491 5497 5504 5497 5497 5498 5500 5499 5502 5518 5508 5511 5514 5512 5508 5509 5506 5511 5514 5517 5517 5519 5510 5504 5497 5496 5497 5520 5533 5525 5512 5528
5479 5480 5481 5482 5483 5485 5485 5484 5485 5485 5483 5480 5480 5473 5470 5469 5482 5476 5474 5475 5474 5476 5480 5478 5482 5488 5488 5486 5485 5478 5481 5488 5488 5488 5493 5498 5494 5490 5487 5475 5472 5485 5500 5505 5502 5466 5498
5456 5457 5458 5459 5460 5460 5461 5462 5462 5462 5461 5458 5459 5454 5447 5445 5461 5453 5451 5451 5450 5448 5447 5455 5455 5463 5461 5463 5459 5460 5459 5464 5461 5466 5475 5473 5475 5466 5463 5454 5457 5469 5482 5484 5465 5465 5482
5434 5435 5436 5437 5437 5438 5439 5440 5441 5441 5439 5434 5439 5435 5426 5421 5434 5427 5431 5431 5429 5428 5423 5425 5426 5434 5440 5436 5433 5437 5433 5435 5435 5441 5450 5452 5451 5451 5453 5443 5438 5448 5453 5460 5449 5439 5444
5416 5417 5417 5418 5419 5419 5419 5420 5421 5420 5419 5414 5419 5414 5407 5399 5408 5406 5409 5411 5408 5403 5399 5400 5401 5406 5404 5407 5412 5406 5408 5406 5412 5415 5425 5425 5430 5424 5426 5427 5430 5429 5427 5424 5420 5416 5417